Regional Weather Roundup
Issued by NWS Jackson, KY

Home | Current Version | Previous Version | Graphics & Text | Print | Product List | Glossary On
Versions: 1 2 3 4 5 6 7 8 9 10 11 12 13 14 15 16 17 18 19 20 21 22 23 24 25 26 27 28 29 30 31 32 33 34 35 36 37 38 39 40 41 42 43 44 45 46 47 48 49 50
000
ASUS43 KJKL 300905
RWRJKL

EAST KENTUCKY HOURLY WEATHER ROUNDUP
NATIONAL WEATHER SERVICE JACKSON KY
500 AM EDT WED JUL 30 2014

NOTE: "FAIR" INDICATES FEW OR NO CLOUDS BELOW 12,000 FEET WITH
NO SIGNIFICANT WEATHER AND/OR OBSTRUCTIONS TO VISIBILITY.

* THESE REPORTS ARE NOT UNDER NWS QUALITY CONTROL AND MAY NOT
  REPORT WEATHER SUCH AS PRECIPITATION AND FOG.

KYZ079-080-083-085-087-088-110-112-115-119-120-301000
...EASTERN KENTUCKY...

CITY           SKY/WX    TMP DP  RH WIND       PRES   REMARKS
JACKSON        CLEAR     55  52  89 CALM      30.10F
LONDON         CLEAR     55  52  89 CALM      30.11F
SOMERSET*      MOCLDY    54  54 100 CALM      30.12S FOG
MONTICELLO*    CLEAR     53  53 100 CALM      30.12F
WILLIAMSBURG*  CLOUDY    54  54 100 CALM      30.12S
MIDDLESBORO*   CLOUDY    54  54 100 CALM      30.12F FOG
HARLAN APT*    CLOUDY    54  52  94 MISG      30.13S VSB<1/4
BLACK MTN*       N/A     48  46  93 NW2         N/A
PIKEVILLE APT* FOG       54  54 100 S3        30.11R VSB 1/2
BIG SANDY*     FOG       54  54  99 SW3       30.10S VSB 1/2
MOREHEAD APT*  CLOUDY    57  57 100 CALM      30.11S FOG
$$

KYZ035-036-041-042-044-050-067-078-099-301000
...CENTRAL KENTUCKY...

CITY           SKY/WX    TMP DP  RH WIND       PRES   REMARKS
MT STERLING*   CLOUDY    57  55  94 SW6       30.10S
FLEMING/MASON* CLEAR     56  54  92 SW6       30.09R
DANVILLE*      CLEAR     54  54 100 CALM      30.10S
RICHMOND*      PTCLDY    55  52  88 CALM      30.09S
LEXINGTON      CLEAR     58  54  86 S7        30.09R
FRANKFORT      CLEAR     57  54  89 CALM      30.07S
$$

KYZ091>093-OHZ055-061-077-WVZ005-015-034-035-042-301000
...SOUTHERN OHIO/WEST VIRGINIA...

CITY           SKY/WX    TMP DP  RH WIND       PRES   REMARKS
COVINGTON      PTCLDY    59  56  89 S3        30.05S
COLUMBUS       CLEAR     60  53  77 S5        30.03S
DAYTON         CLEAR     59  56  89 SW5       30.03F
WILMINGTON     PTCLDY    56  53  90 S5        30.04F
HUNTINGTON     MOCLDY    54  54 100 CALM      30.07S
CHARLESTON     FOG       54  54 100 CALM      30.08R VSB 1
PINEVILLE*     FOG       55  55 100 MISG      30.16S VSB 1
BECKLEY        CLEAR     51  49  92 CALM      30.12S
BLUEFIELD      CLEAR     54  49  83 SW3       30.14R
$$

VAZ002-007-008-TNZ017-027-036-066-071-301000
...SOUTHWEST VIRGINIA/EAST TENNESSEE...

CITY           SKY/WX    TMP DP  RH WIND       PRES   REMARKS
WISE*          CLEAR     52  52 100 CALM      30.14F
JONESVILLE*      N/A     50  50 100 CALM      30.14S
ABINGDON*      CLEAR     52  51  97 CALM      30.13R
BRISTOL        PTCLDY    51  48  89 CALM      30.12R FOG
OAK RIDGE      CLEAR     56  54  93 CALM      30.11F
CROSSVILLE     CLEAR     53  50  89 CALM      30.13S
NASHVILLE      CLEAR     59  56  89 S3        30.10S
$$

...KEY TO REMARKS...
VSB - VISIBILITY IN MILES
WCI - WIND CHILL INDEX
HX  - HEAT INDEX

$$


USA.gov is the U.S. government's official web portal to all federal, state and local government web resources and services.